Weather History for King Salmon, AK

Change the Weather History Date:

Monday, May 6, 2013

  Actual Average Record
Temperature  
Mean Temperature 36 °F 41 °F  
Max Temperature 44 °F 51 °F 68 °F (2004)
Min Temperature 27 °F 32 °F 21 °F (1949)
Degree Days  
Heating Degree Days 29 24  
Month to date heating degree days 180 147  
Since 1 July heating degree days 10476 9970  
Cooling Degree Days 0    
Month to date cooling degree days 0  
Year to date cooling degree days 0  
Moisture  
Dew Point 24 °F    
Average Humidity 0    
Maximum Humidity 0    
Minimum Humidity 0    
Precipitation  
Precipitation 0.00 in 0.04 in 0.47 in (1976)
Month to date precipitation 0.18 0.21  
Year to date precipitation 6.21 3.66  
Snow  
Snow 0.00 in 0.10 in 1.60 in (1968)
Month to date snowfall 0.6 0.3  
Since 1 July snowfall 75.1 46.1  
Snow Depth 0.00 in    
Sea Level Pressure  
Sea Level Pressure 30.23 in    
Wind  
Wind Speed 4 mph (South)    
Max Wind Speed 13 mph    
Max Gust Speed 15 mph    
Visibility 10 miles    
Events      
T = Trace of Precipitation, MM = Missing Value Source: NWS Daily Summary

Daily Weather History Graph

Daily Weather History Graph

Search for Another Location

Airport:

Trip Planner

Search our weather history database for the weather conditions in past years. The results will help you decide how hot, cold, wet, or windy it might be!

Date:

Astronomy

May. 06, 2013 Rise Set
Actual Time 6:17 AM AKDT 10:30 PM AKDT
Civil Twilight 5:24 AM AKDT 11:23 PM AKDT
Nautical Twilight 4:01 AM AKDT 12:49 AM AKDT
Astronomical Twilight Sun does not rise Sun does not rise
Moon 5:09 AM AKDT (5/6) 7:05 PM AKDT (5/6)
Length of Visible Light 17h 59m
Length of Day
16h 13m
Waning Crescent, 10% of the Moon is Illuminated
May 6
Waning Crescent
May 9
New
May 17
First Quarter
May 24
Full
May 31
Last Quarter

Hourly Weather History & Observations

Time (AKDT) Temp. Windchill Dew Point Humidity Pressure Visibility Wind Dir Wind Speed Gust Speed Precip Events Conditions
12:54 AM 28.0 °F 21.7 °F 25.0 °F 88% 30.24 in 10.0 mi SSW 5.8 mph - N/A   Scattered Clouds
1:54 AM 27.0 °F 20.5 °F 24.1 °F 89% 30.24 in 10.0 mi South 5.8 mph - N/A   Scattered Clouds
2:54 AM 28.0 °F 22.8 °F 25.0 °F 88% 30.25 in 10.0 mi South 4.6 mph - N/A   Scattered Clouds
3:01 AM 28.4 °F 22.2 °F 24.8 °F 86% 30.24 in 10.0 mi South 5.8 mph - N/A   Overcast
3:54 AM 28.9 °F 21.1 °F 24.1 °F 82% 30.25 in 10.0 mi South 8.1 mph - N/A   Overcast
4:54 AM 28.9 °F 21.9 °F 24.1 °F 82% 30.24 in 10.0 mi South 6.9 mph - N/A   Overcast
5:54 AM 28.9 °F 21.9 °F 24.1 °F 82% 30.25 in 10.0 mi South 6.9 mph - N/A   Overcast
6:54 AM 28.0 °F 20.8 °F 24.1 °F 85% 30.24 in 10.0 mi SSE 6.9 mph - N/A   Overcast
7:30 AM 28.4 °F 22.2 °F 24.8 °F 86% 30.23 in 10.0 mi SSE 5.8 mph - N/A   Overcast
7:54 AM 28.9 °F 22.8 °F 25.0 °F 85% 30.24 in 10.0 mi South 5.8 mph - N/A   Overcast
8:54 AM 30.9 °F 25.2 °F 25.0 °F 79% 30.25 in 10.0 mi South 5.8 mph - N/A   Overcast
9:54 AM 32.0 °F 27.5 °F 25.0 °F 75% 30.25 in 10.0 mi Variable 4.6 mph - N/A   Mostly Cloudy
10:47 AM 33.8 °F 30.8 °F 24.8 °F 70% 30.24 in 10.0 mi SSW 3.5 mph - N/A   Overcast
10:54 AM 33.1 °F 30.0 °F 24.1 °F 70% 30.25 in 10.0 mi SSE 3.5 mph - N/A   Overcast
11:54 AM 35.1 °F 30.1 °F 24.1 °F 64% 30.25 in 10.0 mi SSE 5.8 mph - N/A   Partly Cloudy
12:54 PM 37.0 °F 34.5 °F 24.1 °F 59% 30.24 in 10.0 mi Variable 3.5 mph - N/A   Mostly Cloudy
1:54 PM 37.9 °F - 23.0 °F 55% 30.24 in 10.0 mi Calm Calm - N/A   Mostly Cloudy
2:54 PM 39.0 °F - 21.9 °F 50% 30.23 in 10.0 mi Calm Calm - N/A   Mostly Cloudy
3:54 PM 41.0 °F 39.0 °F 21.0 °F 45% 30.23 in 10.0 mi Variable 3.5 mph - N/A   Overcast
4:54 PM 42.1 °F 40.2 °F 19.9 °F 41% 30.22 in 10.0 mi Variable 3.5 mph - N/A   Mostly Cloudy
5:54 PM 43.0 °F - 21.0 °F 42% 30.21 in 10.0 mi Calm Calm - N/A   Mostly Cloudy
6:54 PM 44.1 °F 42.5 °F 21.0 °F 40% 30.20 in 10.0 mi Variable 3.5 mph - N/A   Mostly Cloudy
7:54 PM 42.1 °F 37.1 °F 28.9 °F 60% 30.20 in 10.0 mi NW 8.1 mph - N/A   Mostly Cloudy
8:54 PM 37.9 °F 31.5 °F 25.0 °F 60% 30.21 in 10.0 mi NW 9.2 mph - N/A   Mostly Cloudy
9:54 PM 36.0 °F 32.1 °F 25.0 °F 64% 30.22 in 10.0 mi WNW 4.6 mph - N/A   Mostly Cloudy
10:54 PM 35.1 °F - 25.0 °F 67% 30.22 in 10.0 mi Calm Calm - N/A   Mostly Cloudy
11:54 PM 33.1 °F - 26.1 °F 75% 30.23 in 10.0 mi Calm Calm - N/A   Mostly Cloudy